Temperature
10 10 10 10 10 10 10 9 9 9 9 9 9 9 9 9 9 9 9 9 9 9 9 9 9 9 9 9 9 9 9 9 9 9 9 9 9 9 9 9 9 9 9
10 10 9 9 9 9 9 9 9 9 9 9 9 9 9 9 9 9 8 8 8 8 8 8 8 8 8 8 8 9 9 9 9 9 9 9 9 9 9 9 9 9 9
9 9 9 9 9 9 9 9 8 8 8 8 8 8 8 8 8 8 8 8 8 8 8 8 8 8 8 8 8 8 8 8 8 8 8 8 8 8 8 8 8 8 8
9 9 9 8 8 8 8 8 8 8 8 8 8 8 8 8 8 8 8 7 7 7 7 7 7 7 7 7 7 7 7 8 8 8 8 8 8 8 8 8 8 8 8
8 8 8 8 8 8 8 8 7 7 7 7 7 7 7 7 7 7 7 7 7 7 7 7 7 7 7 7 7 7 7 7 7 7 7 7 7 7 7 7 7 7 7
7 7 7 7 7 7 7 7 7 7 7 7 7 6 6 6 6 6 6 6 6 6 6 6 6 6 6 6 6 6 6 6 6 6 6 7 7 7 7 7 7 7 7
7 7 7 7 7 7 7 7 6 6 6 6 6 6 6 6 6 6 6 6 6 6 6 6 6 6 6 6 6 6 6 5 5 6 6 6 6 6 6 6 6 6 6
6 6 6 6 6 6 6 6 6 6 6 5 5 5 5 5 5 5 5 5 5 5 5 5 5 5 5 5 5 5 5 5 5 5 5 5 5 5 5 6 6 6 6
6 6 6 6 6 6 6 6 6 6 5 5 5 5 5 5 5 5 5 5 5 5 5 5 5 5 5 5 5 5 5 4 4 4 4 4 4 5 5 5 5 5 5
5 5 5 5 5 5 5 5 5 5 5 5 5 5 5 5 4 4 4 5 5 5 4 4 4 4 4 4 4 4 4 4 4 4 4 4 4 4 4 4 4 4 4
5 5 5 5 5 4 4 4 4 4 4 4 4 4 4 4 4 4 4 4 4 4 4 4 4 4 4 4 4 4 3 3 3 3 3 3 3 3 3 3 4 4 4
4 4 4 4 4 4 4 4 4 4 4 4 4 4 4 4 4 4 4 4 4 4 3 3 3 3 3 3 3 3 3 3 3 3 2 2 3 3 3 3 3 3 3
4 4 4 4 4 3 3 3 3 3 3 3 3 3 3 4 4 4 4 3 3 3 3 3 3 3 3 2 2 2 2 2 2 2 2 2 2 2 2 3 3 3 3
3 3 3 3 3 3 3 3 3 3 3 3 3 3 3 3 3 3 3 3 2 2 2 2 2 2 2 2 2 2 2 2 2 2 2 2 2 2 2 2 2 2 2
2 3 2 3 3 2 2 2 2 2 2 2 2 2 2 2 2 2 2 2 2 1 1 2 2 2 2 1 1 1 1 1 1 1 1 1 1 1 1 1 1 1 1
2 2 2 2 2 2 2 2 2 2 1 2 1 1 2 2 2 2 2 2 2 2 1 2 2 2 1 1 1 1 1 1 1 1 1 1 1 1 1 1 1 1 1
1 1 1 1 1 1 1 1 1 1 1 1 1 1 1 1 1 1 1 1 1 1 1 1 1 1 1 1 0 0 0 0 0 0 0 0 0 0 0 0 0 0 0
1 1 1 1 0 1 1 1 1 1 1 1 1 1 1 1 1 0 0 1 1 1 1 1 1 0 0 0 0 -0 -0 -0 -0 -0 -1 -0 -0 -0 -0 -0 -0 -0 -0
-0 0 0 0 0 0 -0 0 0 0 0 0 0 -0 -0 -0 -0 -0 0 0 0 -0 -0 -0 -0 -0 -0 -1 -1 -1 -1 -1 -1 -1 -1 -1 -1 -1 -1 -1 -1 -1 -1
-1 -1 -0 -0 -0 -1 -1 -1 -0 -0 -0 -0 -0 -0 -0 -0 -1 -0 -0 -0 -0 -1 -1 -1 -1 -1 -1 -1 -1 -1 -1 -1 -1 -1 -2 -2 -2 -2 -1 -1 -1 -1 -1
-1 -1 -1 -1 -1 -1 -1 -1 -1 -1 -1 -1 -1 -1 -1 -1 -1 -1 -1 -1 -1 -1 -1 -1 -1 -1 -1 -1 -2 -1 -2 -2 -2 -2 -2 -2 -2 -2 -2 -2 -2 -2 -2
-2 -2 -2 -2 -2 -2 -2 -2 -2 -2 -2 -2 -2 -1 -1 -1 -2 -2 -2 -2 -2 -2 -2 -2 -2 -2 -2 -2 -2 -2 -2 -3 -3 -2 -3 -3 -3 -3 -3 -3 -3 -3 -3
-2 -2 -2 -2 -2 -2 -2 -3 -3 -2 -2 -2 -2 -2 -2 -2 -2 -2 -2 -2 -2 -2 -2 -2 -2 -2 -2 -2 -2 -3 -3 -2 -3 -3 -3 -3 -3 -3 -3 -3 -3 -3 -3
-3 -3 -3 -3 -3 -3 -3 -3 -3 -3 -3 -3 -3 -3 -3 -3 -3 -3 -3 -3 -3 -3 -3 -3 -3 -3 -3 -3 -3 -3 -3 -3 -4 -4 -4 -4 -4 -4 -4 -4 -4 -4 -4
-3 -4 -4 -4 -4 -3 -3 -3 -4 -4 -3 -3 -3 -3 -3 -3 -3 -3 -4 -4 -4 -3 -3 -4 -3 -3 -3 -3 -4 -4 -4 -4 -5 -4 -4 -5 -5 -5 -4 -4 -4 -4 -4
-4 -4 -4 -4 -4 -4 -4 -4 -4 -4 -4 -4 -4 -4 -4 -4 -4 -4 -4 -4 -4 -4 -4 -4 -4 -4 -4 -4 -4 -4 -5 -5 -5 -5 -5 -5 -5 -5 -6 -5 -5 -5 -5
Wind_Speed
7 7 7 8 9 10 10 9 9 10 10 10 10 10 10 10 10 10 9 11 11 11 10 10 10 10 10 11 11 11 11 11 11 11 11 11 11 11 11 11 11 11 11
8 7 7 7 8 9 9 9 9 9 8 9 9 10 9 9 10 10 10 10 10 11 10 10 9 9 9 10 10 10 11 11 11 11 11 11 10 10 10 10 10 10 10
9 8 7 6 7 9 10 10 9 9 7 7 7 8 9 9 9 10 10 10 10 10 10 10 9 8 8 8 9 9 9 10 10 10 11 10 11 10 9 9 9 10 10
10 8 6 6 8 9 9 7 6 5 5 5 4 5 7 8 8 9 10 10 10 10 10 10 10 9 8 8 8 9 9 9 9 9 9 10 10 11 9 8 8 9 9
9 9 7 7 9 8 7 6 4 4 5 5 4 4 5 6 6 7 8 9 9 9 9 10 10 10 9 8 8 8 8 8 8 8 8 9 9 10 10 8 7 8 7
8 8 7 8 8 6 5 5 5 4 4 5 5 5 4 4 5 6 6 7 8 8 9 9 9 9 8 8 7 7 6 6 7 7 8 8 8 8 9 8 7 7 7
7 7 6 7 7 6 5 6 5 5 3 3 4 3 3 3 3 4 4 5 6 6 8 8 8 8 7 7 7 6 5 6 6 6 6 6 6 6 6 8 6 6 6
7 7 7 6 6 5 6 6 5 4 2 2 3 3 1 1 2 2 3 3 3 5 6 6 6 6 6 6 6 7 6 5 5 5 5 5 5 5 5 6 6 4 5
7 7 8 7 6 6 6 6 6 5 4 2 1 3 4 3 1 1 1 1 2 2 3 4 4 4 4 5 5 5 5 4 3 3 3 3 4 4 4 5 6 4 3
6 7 7 7 7 6 7 7 5 4 6 4 1 0 1 3 3 1 1 1 1 0 1 1 2 2 3 3 3 3 3 3 3 2 2 2 3 3 3 4 5 6 4
5 6 7 7 6 6 6 7 6 5 5 5 3 2 2 2 2 3 2 1 1 1 0 0 0 1 1 2 2 2 1 1 2 2 2 3 3 3 3 4 5 5 6
4 6 7 7 7 6 7 7 7 6 5 4 3 3 3 4 3 3 3 2 2 1 1 1 1 1 2 2 2 2 1 2 2 3 3 3 3 3 4 4 5 6 6
3 6 6 6 6 7 8 7 7 6 6 6 5 4 4 3 3 3 3 2 1 1 1 1 3 3 3 3 3 3 3 3 3 4 4 4 4 4 4 5 5 6 6
4 5 6 6 7 7 8 8 6 6 6 5 5 5 3 3 4 4 4 4 2 1 2 3 2 4 4 4 4 4 4 4 4 5 5 5 4 4 5 5 6 7 7
3 5 6 6 7 7 8 7 6 6 6 5 5 5 4 3 3 4 4 5 5 4 5 4 3 3 5 5 5 4 5 5 5 6 6 5 5 5 6 6 6 7 7
3 4 5 6 6 7 7 7 6 6 6 6 5 5 5 4 4 3 4 4 3 4 4 4 4 2 4 5 5 5 6 6 7 7 6 6 6 6 6 6 7 7 8
4 4 5 6 6 6 7 7 7 7 7 6 5 6 6 4 4 4 3 4 4 3 4 3 1 1 3 3 3 5 5 5 6 7 7 7 7 7 7 7 7 8 9
3 4 4 5 6 6 7 7 8 8 8 8 7 7 6 5 5 5 4 5 4 4 3 4 2 2 3 4 4 3 4 4 5 6 7 7 7 7 8 8 8 8 9
3 3 4 5 5 5 6 7 7 7 8 8 8 8 7 7 7 5 6 5 4 3 3 3 3 2 2 2 2 2 2 3 5 6 6 6 7 7 7 7 7 8 9
3 3 4 4 5 5 6 6 6 7 7 7 7 8 8 8 8 7 6 6 4 4 4 3 3 2 2 2 2 2 3 2 3 4 6 6 7 6 7 7 8 9 9
3 3 4 4 4 5 6 7 7 6 7 6 6 7 8 9 10 8 6 6 6 5 5 4 3 2 3 3 4 3 4 2 3 3 3 4 5 5 6 8 9 9 9
2 3 4 4 5 5 7 8 7 7 6 7 7 6 7 8 9 10 11 10 9 7 6 6 5 5 6 5 4 4 3 2 3 3 3 4 4 4 6 7 8 9 9
3 3 4 4 5 6 8 8 9 6 6 7 7 6 6 6 7 6 8 9 9 10 10 7 7 7 7 7 6 6 6 5 4 3 3 4 3 4 6 8 9 9 9
3 3 3 4 5 6 7 8 8 6 6 6 7 7 7 6 7 7 6 6 6 6 7 7 7 7 6 7 7 6 5 3 1 2 3 4 3 4 6 8 9 9 9
3 3 3 4 5 5 6 7 6 4 4 5 6 7 7 7 9 9 7 6 5 5 6 7 7 6 7 7 6 3 3 3 3 3 2 2 2 3 3 5 7 8 9
3 3 4 4 5 5 7 7 6 4 5 5 4 5 8 9 9 9 7 6 6 5 3 3 3 3 4 5 7 6 5 5 3 3 3 3 2 1 2 3 4 6 7
Wind_Direction
115 109 105 102 103 107 107 102 98 92 85 81 79 77 70 67 67 67 63 66 72 77 80 83 85 87 87 84 80 80 77 74 70 68 68 67 70 74 74 71 71 71 70
125 118 113 110 110 113 113 110 107 99 90 85 77 73 70 67 64 65 65 64 65 70 73 76 79 84 86 85 82 79 76 74 71 68 67 65 65 69 71 70 69 68 68
131 127 123 120 120 121 116 110 104 98 91 84 74 69 69 66 63 62 63 63 64 66 70 72 72 76 80 82 81 79 76 74 71 66 63 61 58 60 67 67 67 67 65
138 131 128 127 126 125 122 117 113 106 97 91 79 63 62 63 62 64 64 62 63 63 65 66 64 65 74 76 77 79 75 73 70 67 62 57 55 52 57 64 64 63 61
146 139 136 136 132 126 125 126 115 118 116 106 91 69 56 56 54 61 61 59 62 64 65 65 63 60 64 66 70 76 73 69 67 63 60 56 52 49 46 54 58 57 55
152 145 142 142 137 130 128 128 123 109 122 119 98 72 51 48 53 55 57 60 61 63 68 68 64 61 58 58 60 66 68 65 63 59 57 54 49 45 40 40 49 52 50
154 151 149 150 147 147 147 142 132 121 115 124 107 80 43 44 49 44 53 61 56 59 67 68 66 64 61 55 52 55 63 65 62 57 53 47 40 36 34 30 33 40 39
162 163 158 160 157 148 146 146 141 137 140 148 135 129 94 3 3 11 31 52 46 56 59 62 68 70 68 63 57 49 51 57 55 52 48 39 33 28 23 21 23 30 32
170 168 166 163 165 161 166 165 161 152 163 181 151 149 157 201 259 344 360 19 29 49 54 59 68 78 77 72 67 60 51 40 39 36 32 27 22 17 15 11 17 15 21
173 171 168 167 168 169 170 174 168 161 164 175 170 81 135 144 157 197 320 336 335 353 41 48 65 81 96 92 81 72 58 32 12 5 6 358 356 357 0 1 359 5 358
178 178 177 173 172 174 175 173 172 174 177 181 179 166 139 113 129 159 207 267 302 284 287 252 213 115 134 136 116 111 69 345 331 330 329 325 324 328 339 344 346 344 350
189 186 183 181 180 179 180 180 179 183 188 187 186 183 179 170 174 168 183 201 236 273 294 256 231 212 188 178 174 180 210 266 290 299 301 301 304 311 318 324 330 332 334
215 198 190 187 189 189 186 183 183 189 190 192 196 201 202 196 171 163 161 172 211 271 266 249 231 219 211 201 200 207 217 241 265 277 282 289 294 301 307 312 317 320 324
224 202 194 192 192 191 188 187 188 194 195 198 205 202 205 207 192 181 173 164 173 246 243 242 233 221 218 210 212 214 216 235 248 263 272 279 283 290 297 302 310 312 317
235 202 196 194 191 190 189 187 192 196 194 203 206 207 212 211 205 201 188 180 175 204 233 224 216 219 217 216 220 212 215 232 241 253 265 269 273 283 287 289 294 302 308
228 215 199 195 193 189 189 190 195 196 199 206 202 203 214 208 202 201 197 198 199 199 226 215 214 208 212 220 226 219 219 230 239 247 254 256 259 266 274 281 288 292 296
219 219 206 198 197 196 191 195 201 196 201 206 207 205 212 205 204 203 201 201 207 199 222 247 228 205 200 204 224 222 225 224 235 245 248 249 254 260 267 276 283 286 288
224 222 208 203 202 202 198 198 203 201 201 206 210 208 212 207 206 207 205 209 209 204 202 228 234 220 221 211 208 215 230 232 237 246 244 246 252 258 263 271 278 285 287
228 226 203 205 203 204 205 206 204 203 205 207 207 208 210 204 210 209 207 211 212 207 199 204 226 234 233 207 203 230 235 244 246 247 244 248 252 256 261 270 280 286 287
228 226 214 211 206 205 206 208 209 206 207 210 208 209 207 206 209 205 209 209 208 203 193 193 207 218 222 205 193 219 243 239 258 256 249 255 256 257 261 269 276 280 283
244 225 217 217 215 213 210 209 203 206 207 212 214 214 213 211 213 211 212 206 200 206 197 200 208 215 215 205 215 217 233 247 257 245 250 254 256 256 260 263 268 274 279
258 227 219 216 220 228 230 226 214 203 206 209 213 217 217 216 218 220 224 220 210 209 206 205 214 216 222 220 213 215 218 233 254 229 226 260 247 251 259 259 265 272 276
256 238 225 217 220 230 230 228 225 212 205 210 211 214 220 220 218 214 222 226 228 232 222 213 213 219 216 211 203 210 215 221 237 225 215 247 245 256 259 262 268 271 275
243 245 239 227 225 231 233 230 228 213 208 212 213 211 214 219 218 209 208 219 226 234 231 222 219 220 217 205 203 209 213 216 289 235 204 239 247 256 268 261 264 270 276
251 252 245 232 230 237 238 232 227 208 212 218 218 214 215 218 224 216 207 213 224 237 238 229 228 224 220 212 201 178 182 203 248 246 215 218 243 267 271 263 258 268 275
253 257 258 243 233 234 239 236 229 210 214 219 223 222 224 224 225 217 207 206 218 227 216 212 215 216 206 206 202 193 192 205 227 236 208 200 226 250 276 269 259 266 270
Height
1540 1541 1543 1545 1546 1548 1550 1551 1552 1554 1555 1556 1557 1559 1559 1560 1561 1562 1563 1564 1565 1565 1566 1567 1567 1568 1568 1569 1569 1570 1570 1571 1571 1572 1572 1573 1573 1573 1573 1574 1574 1574 1574
1539 1540 1542 1543 1545 1547 1549 1550 1551 1553 1554 1556 1557 1558 1559 1560 1561 1562 1563 1564 1565 1565 1566 1567 1567 1568 1568 1568 1569 1569 1570 1570 1571 1572 1572 1573 1573 1573 1573 1574 1573 1574 1574
1537 1538 1540 1542 1544 1545 1547 1549 1550 1552 1553 1555 1556 1557 1558 1559 1560 1561 1562 1563 1564 1565 1566 1566 1567 1567 1568 1568 1569 1569 1570 1570 1571 1571 1571 1572 1572 1572 1573 1573 1573 1573 1573
1535 1536 1538 1540 1542 1544 1545 1547 1549 1550 1552 1553 1554 1556 1557 1558 1559 1560 1561 1562 1563 1564 1565 1566 1566 1567 1568 1568 1568 1568 1569 1569 1570 1570 1570 1571 1571 1571 1571 1572 1572 1572 1572
1532 1534 1536 1538 1539 1541 1543 1545 1547 1549 1550 1552 1553 1554 1556 1557 1558 1559 1560 1561 1562 1563 1564 1565 1566 1566 1567 1567 1568 1568 1568 1569 1569 1569 1569 1569 1570 1570 1570 1570 1570 1571 1570
1529 1531 1533 1535 1537 1539 1541 1543 1545 1547 1548 1550 1551 1553 1554 1556 1557 1558 1558 1560 1561 1561 1562 1563 1564 1565 1565 1566 1566 1567 1567 1567 1567 1567 1568 1568 1568 1568 1569 1569 1569 1569 1569
1526 1528 1530 1531 1533 1536 1538 1540 1542 1544 1546 1548 1549 1551 1553 1554 1555 1556 1557 1558 1559 1560 1561 1562 1562 1563 1564 1564 1565 1565 1565 1566 1566 1566 1566 1566 1566 1567 1567 1567 1567 1567 1567
1523 1525 1526 1528 1530 1532 1534 1536 1538 1540 1542 1545 1546 1548 1550 1553 1552 1554 1555 1556 1557 1558 1559 1560 1560 1561 1562 1562 1563 1563 1564 1564 1564 1564 1564 1564 1565 1565 1565 1565 1565 1565 1565
1519 1521 1523 1525 1527 1528 1530 1532 1534 1536 1538 1541 1544 1545 1547 1547 1549 1551 1551 1553 1554 1555 1556 1557 1558 1559 1559 1560 1561 1561 1561 1562 1562 1562 1562 1563 1563 1563 1563 1563 1563 1563 1563
1515 1517 1519 1521 1523 1525 1526 1528 1531 1533 1535 1537 1540 1541 1543 1544 1546 1546 1548 1550 1551 1552 1553 1554 1555 1556 1556 1557 1558 1559 1559 1559 1560 1560 1560 1560 1560 1560 1561 1561 1561 1560 1560
1510 1512 1514 1516 1519 1521 1523 1524 1527 1529 1531 1533 1535 1537 1539 1540 1541 1543 1544 1546 1547 1548 1549 1551 1552 1552 1553 1554 1555 1555 1556 1556 1557 1557 1558 1558 1558 1558 1558 1558 1558 1557 1557
1505 1508 1510 1512 1514 1516 1518 1520 1522 1525 1527 1529 1531 1533 1534 1536 1537 1539 1540 1541 1542 1544 1545 1547 1548 1549 1550 1551 1551 1552 1552 1553 1553 1554 1554 1555 1555 1555 1555 1554 1554 1554 1554
1500 1503 1505 1507 1509 1511 1513 1516 1518 1520 1522 1525 1526 1528 1530 1532 1534 1535 1537 1537 1538 1539 1541 1542 1544 1545 1546 1547 1547 1548 1548 1549 1549 1550 1551 1551 1551 1551 1551 1551 1551 1550 1550
1496 1498 1500 1502 1504 1507 1508 1511 1513 1515 1518 1520 1522 1524 1525 1527 1529 1531 1532 1534 1534 1535 1536 1537 1539 1540 1542 1543 1543 1544 1544 1545 1545 1546 1546 1547 1547 1547 1547 1547 1546 1546 1546
1491 1493 1495 1497 1499 1502 1503 1505 1507 1510 1512 1515 1517 1519 1520 1522 1524 1526 1528 1529 1531 1530 1530 1531 1534 1535 1537 1538 1539 1539 1540 1540 1541 1541 1542 1542 1542 1543 1543 1543 1542 1542 1542
1486 1488 1489 1492 1494 1496 1499 1500 1502 1505 1507 1509 1511 1513 1515 1517 1519 1521 1522 1524 1525 1526 1526 1526 1528 1530 1532 1533 1534 1534 1535 1536 1536 1537 1537 1537 1538 1538 1538 1538 1538 1538 1537
1481 1482 1484 1486 1489 1491 1493 1495 1496 1499 1501 1503 1505 1507 1509 1512 1513 1515 1517 1518 1520 1521 1521 1521 1523 1525 1527 1528 1529 1529 1530 1530 1531 1532 1532 1533 1533 1533 1533 1533 1533 1533 1533
1476 1477 1479 1481 1483 1485 1487 1489 1491 1493 1495 1497 1500 1502 1504 1506 1508 1510 1511 1513 1514 1515 1517 1516 1518 1519 1521 1523 1523 1524 1525 1526 1526 1526 1527 1527 1528 1528 1528 1528 1528 1528 1527
1470 1472 1474 1476 1477 1480 1482 1484 1486 1488 1490 1492 1494 1496 1498 1500 1502 1504 1506 1507 1508 1510 1511 1512 1512 1514 1515 1517 1518 1519 1520 1520 1521 1521 1522 1522 1522 1523 1523 1523 1522 1522 1522
1465 1466 1468 1470 1472 1474 1476 1479 1480 1482 1484 1486 1488 1490 1492 1494 1496 1498 1500 1501 1503 1504 1505 1506 1507 1508 1509 1511 1512 1513 1513 1514 1515 1516 1516 1517 1517 1517 1517 1517 1517 1517 1517
1460 1461 1463 1464 1466 1469 1471 1473 1475 1476 1478 1480 1482 1485 1486 1488 1490 1492 1494 1496 1497 1499 1499 1500 1501 1502 1503 1504 1506 1506 1508 1508 1509 1510 1510 1511 1511 1511 1511 1511 1511 1511 1511
1456 1457 1458 1459 1461 1463 1465 1467 1469 1470 1472 1474 1476 1478 1481 1483 1484 1487 1488 1490 1492 1493 1494 1495 1495 1496 1497 1499 1500 1501 1502 1502 1502 1504 1504 1504 1506 1505 1506 1506 1506 1506 1505
1451 1452 1453 1454 1456 1458 1460 1462 1464 1465 1467 1469 1471 1473 1475 1477 1479 1481 1482 1484 1485 1487 1488 1490 1489 1490 1492 1493 1494 1495 1496 1496 1496 1498 1499 1498 1499 1499 1500 1500 1500 1500 1500
1447 1447 1448 1450 1451 1453 1455 1457 1459 1460 1461 1463 1465 1467 1469 1471 1473 1475 1476 1477 1478 1480 1482 1483 1484 1485 1486 1488 1489 1490 1491 1491 1491 1492 1493 1493 1493 1494 1494 1494 1494 1494 1494
1442 1443 1444 1445 1446 1448 1450 1452 1453 1454 1455 1457 1459 1461 1463 1465 1467 1469 1470 1471 1472 1474 1475 1477 1478 1479 1481 1482 1483 1484 1484 1485 1485 1486 1487 1487 1487 1488 1488 1488 1488 1488 1488
1438 1439 1440 1441 1442 1443 1445 1447 1448 1449 1450 1451 1453 1455 1458 1459 1461 1463 1464 1465 1466 1467 1469 1471 1472 1473 1474 1475 1477 1478 1479 1479 1479 1480 1481 1482 1482 1483 1481 1481 1482 1482 1482